User: anonymous   Login
Location: Katowice
(50.2611°N, 19.0242°E)
Time: 15:19:37
(UTC+02:00)
Language:

Vanguard 2 Rocket - Orbit

View from above orbital plane
View from above orbital plane
View from above satellite
View from above satellite

Ground track
Ground track

The orbit data is extracted from the following two-line orbital elements,

1    12U 59001B   19199.07730743  .00000228  00000-0  13788-3 0  9990
2    12  32.8999  84.3470 1666249 112.7622 265.7229 11.44273048484133
Epoch (UTC): 18 July 2019 01:51:19
Eccentricity: 0.1666249
inclination: 32.8999°
perigee height: 554 km
apogee height: 3326 km
right ascension of ascending node: 84.3470°
argument of perigee: 112.7622°
revolutions per day: 11.44273048
mean anomaly at epoch: 265.7229°
orbit number at epoch: 48413

The dashed part of the orbit path shows where the satellite is in the earth's shadow,  

DLR